Flag for Kenya Weather past 2 weeks in Nairobi, Kenya

Now
57 °F

Fog.


Feels Like: 57 °F
Forecast: 58 / 76 °F
Wind: No wind

Location: Nairobi / Wilson


UV Index: 3 (Moderate)

Visibility: 1 mi


Pressure: 30.09 "Hg

Humidity: 100%

Dew point: 57 °F

Location of NairobiLocation

Historic Weather in Nairobi

°F

Nairobi temperature yesterday

Maximum temperature yesterday: 75 °F (at 2:00 PM)
Minimum temperature yesterday: 63 °F (at 12:00 AM)
Average temperature yesterday: 68 °F

Past Weeks' High & Low Weather Summary

 TemperatureHumidityPressure
High79 °F (Apr 6, 4:00 PM)100% (Apr 7, 3:00 AM)30.24 "Hg (Apr 7, 3:00 AM)
Low57 °F (Apr 9, 7:00 AM)32% (Apr 8, 3:00 PM)29.89 "Hg (Apr 14, 12:00 PM)
Average68 °F74%30.14 "Hg
* Reported Apr 6 5:00 AM — Apr 21 5:00 AM, Nairobi, Weather by CustomWeather, © 2014

Note: Actual official high and low records may vary slightly from our data, if they occured in-between our weather recording intervals... More about our weather records

Advertising

Historic Weather Conditions — Data for Previous 24 hours

 ConditionsComfort  
Time TempWeatherWind HumidityBarometerVisibility
5:00 AM
Apr 21
63 °FPassing clouds.No wind94%30.09 "HgN/A
3:00 AM63 °FPassing clouds.No wind94%30.09 "HgN/A
1:00 AM63 °FPassing clouds.No wind94%30.09 "HgN/A
12:00 AM63 °FPassing clouds.No wind94%30.12 "HgN/A
10:00 PM
Apr 20
64 °FPassing clouds.5 mph88%30.12 "HgN/A
9:00 PM64 °FPassing clouds.7 mph88%30.09 "HgN/A
8:00 PM66 °FPassing clouds.7 mph78%30.09 "HgN/A
7:00 PM68 °FPassing clouds.7 mph69%30.09 "HgN/A
3:00 PM75 °FPartly sunny.16 mph57%30.07 "HgN/A
2:00 PM75 °FScattered clouds.14 mph54%30.12 "HgN/A
1:00 PM73 °FPartly sunny.18 mph61%30.15 "HgN/A
12:00 PM72 °FPartly sunny.18 mph65%30.15 "HgN/A
11:00 AM70 °FPartly sunny.10 mph73%30.18 "HgN/A
10:00 AM66 °FPartly sunny.10 mph83%30.21 "HgN/A
9:00 AM64 °FPartly sunny.14 mph83%30.18 "HgN/A
8:00 AM63 °FPartly sunny.9 mph94%30.15 "HgN/A
7:00 AM63 °FPartly sunny.9 mph94%30.15 "HgN/A
Weather by CustomWeather, © 2014

See weather overview